Time,TemperatureF,DewpointF,PressureIn,WindDirection,WindDirectionDegrees,WindSpeedMPH,WindSpeedGustMPH,Humidity,HourlyPrecipIn,Conditions,Clouds,dailyrainin,SolarRadiationWatts/m^2,SoftwareType,DateUTC
2013-01-28 00:01:00,33.0,33.0,-100.00,SSW,203,0.0,6.0,99,0.00,,,0.29,3.000000,,2013-01-28 08:01:00,
2013-01-28 00:11:00,33.0,33.0,-100.00,SSW,203,0.0,6.0,99,0.00,,,0.29,3.000000,,2013-01-28 08:11:00,
2013-01-28 00:32:00,33.0,33.0,-100.00,SSW,200,0.0,3.0,99,0.00,,,0.28,3.000000,,2013-01-28 08:32:00,
2013-01-28 00:42:00,33.0,33.0,-100.00,SSW,200,0.0,3.0,99,0.00,,,0.28,3.000000,,2013-01-28 08:42:00,
2013-01-28 00:52:00,33.0,33.0,-100.00,SSW,200,0.0,3.0,99,0.00,,,0.28,3.000000,,2013-01-28 08:52:00,
2013-01-28 01:01:00,33.0,33.0,-100.00,SSW,200,0.0,3.0,99,0.00,,,0.28,3.000000,,2013-01-28 09:01:00,
2013-01-28 01:11:00,33.0,33.0,-100.00,SSW,200,0.0,3.0,99,0.00,,,0.28,3.000000,,2013-01-28 09:11:00,
2013-01-28 01:32:00,33.0,33.0,-100.00,West,271,0.0,5.0,99,0.00,,,0.27,3.000000,,2013-01-28 09:32:00,
2013-01-28 01:42:00,33.0,33.0,-100.00,West,271,0.0,5.0,99,0.00,,,0.27,3.000000,,2013-01-28 09:42:00,
2013-01-28 01:52:00,33.0,33.0,-100.00,West,271,0.0,5.0,99,0.00,,,0.27,3.000000,,2013-01-28 09:52:00,
2013-01-28 02:01:00,33.0,33.0,-100.00,West,271,0.0,5.0,99,0.00,,,0.27,3.000000,,2013-01-28 10:01:00,
2013-01-28 02:11:00,33.0,33.0,-100.00,West,271,0.0,5.0,99,0.00,,,0.27,3.000000,,2013-01-28 10:11:00,
2013-01-28 02:32:00,32.0,32.0,-100.00,WNW,286,1.0,8.0,99,0.00,,,0.26,3.000000,,2013-01-28 10:32:00,
2013-01-28 02:42:00,32.0,32.0,-100.00,WNW,286,1.0,8.0,99,0.00,,,0.26,3.000000,,2013-01-28 10:42:00,
2013-01-28 02:52:00,32.0,32.0,-100.00,WNW,286,1.0,8.0,99,0.00,,,0.26,3.000000,,2013-01-28 10:52:00,
2013-01-28 03:02:00,32.0,32.0,-100.00,WNW,286,1.0,8.0,99,0.00,,,0.26,3.000000,,2013-01-28 11:02:00,
2013-01-28 03:11:00,32.0,32.0,-100.00,WNW,286,1.0,8.0,99,0.00,,,0.26,3.000000,,2013-01-28 11:11:00,
2013-01-28 03:32:00,32.0,32.0,-100.00,West,261,0.0,6.0,99,0.00,,,-99.99,3.000000,,2013-01-28 11:32:00,
2013-01-28 03:42:00,32.0,32.0,-100.00,West,261,0.0,6.0,99,0.00,,,-99.99,3.000000,,2013-01-28 11:42:00,
2013-01-28 03:52:00,32.0,32.0,-100.00,West,261,0.0,6.0,99,0.00,,,-99.99,3.000000,,2013-01-28 11:52:00,
2013-01-28 04:03:00,32.0,32.0,-100.00,West,261,0.0,6.0,99,0.00,,,-99.99,3.000000,,2013-01-28 12:03:00,
2013-01-28 04:11:00,32.0,32.0,-100.00,West,261,0.0,6.0,99,0.00,,,-99.99,3.000000,,2013-01-28 12:11:00,
2013-01-28 04:33:00,34.0,34.0,-100.00,West,261,0.0,8.0,99,0.00,,,0.25,3.000000,,2013-01-28 12:33:00,
2013-01-28 04:42:00,34.0,34.0,-100.00,West,261,0.0,8.0,99,0.00,,,0.25,3.000000,,2013-01-28 12:42:00,
2013-01-28 04:52:00,34.0,34.0,-100.00,West,261,0.0,8.0,99,0.00,,,0.25,3.000000,,2013-01-28 12:52:00,
2013-01-28 05:02:00,34.0,34.0,-100.00,West,261,0.0,8.0,99,0.00,,,0.25,3.000000,,2013-01-28 13:02:00,
2013-01-28 05:11:00,34.0,34.0,-100.00,West,261,0.0,8.0,99,0.00,,,0.25,3.000000,,2013-01-28 13:11:00,
2013-01-28 05:33:00,32.0,32.0,-100.00,SW,229,0.0,5.0,99,0.01,,,0.25,3.000000,,2013-01-28 13:33:00,
2013-01-28 05:42:00,32.0,32.0,-100.00,SW,229,0.0,5.0,99,0.01,,,0.25,3.000000,,2013-01-28 13:42:00,
2013-01-28 05:53:00,32.0,32.0,-100.00,SW,229,0.0,5.0,99,0.01,,,0.25,3.000000,,2013-01-28 13:53:00,
2013-01-28 06:02:00,32.0,32.0,-100.00,SW,229,0.0,5.0,99,0.01,,,0.25,3.000000,,2013-01-28 14:02:00,
2013-01-28 06:11:00,32.0,32.0,-100.00,SW,229,0.0,5.0,99,0.01,,,0.25,3.000000,,2013-01-28 14:11:00,
2013-01-28 06:43:00,33.0,33.0,-100.00,SW,223,0.0,11.0,99,0.02,,,0.27,3.000000,,2013-01-28 14:43:00,
2013-01-28 06:53:00,33.0,33.0,-100.00,SW,223,0.0,11.0,99,0.02,,,0.27,3.000000,,2013-01-28 14:53:00,
2013-01-28 07:03:00,33.0,33.0,-100.00,SW,223,0.0,11.0,99,0.02,,,0.27,3.000000,,2013-01-28 15:03:00,
2013-01-28 07:12:00,33.0,33.0,-100.00,SW,223,0.0,11.0,99,0.02,,,0.27,3.000000,,2013-01-28 15:12:00,
2013-01-28 07:33:00,33.0,33.0,-100.00,SW,218,0.0,4.0,99,0.00,,,0.27,3.000000,,2013-01-28 15:33:00,
2013-01-28 07:43:00,33.0,33.0,-100.00,SW,218,0.0,4.0,99,0.00,,,0.27,3.000000,,2013-01-28 15:43:00,
2013-01-28 07:53:00,33.0,33.0,-100.00,SW,218,0.0,4.0,99,0.00,,,0.27,3.000000,,2013-01-28 15:53:00,
2013-01-28 08:03:00,33.0,33.0,-100.00,SW,218,0.0,4.0,99,0.00,,,0.27,3.000000,,2013-01-28 16:03:00,
2013-01-28 08:11:00,33.0,33.0,-100.00,SW,218,0.0,4.0,99,0.00,,,0.27,3.000000,,2013-01-28 16:11:00,
2013-01-28 08:33:00,33.0,33.0,-100.00,South,191,0.0,5.0,99,0.00,,,0.26,6.000000,,2013-01-28 16:33:00,
2013-01-28 08:43:00,33.0,33.0,-100.00,South,191,0.0,5.0,99,0.00,,,0.26,6.000000,,2013-01-28 16:43:00,
2013-01-28 08:53:00,33.0,33.0,-100.00,South,191,0.0,5.0,99,0.00,,,0.26,6.000000,,2013-01-28 16:53:00,
2013-01-28 09:01:00,33.0,33.0,-100.00,South,191,0.0,5.0,99,0.00,,,0.26,6.000000,,2013-01-28 17:01:00,
2013-01-28 09:11:00,33.0,33.0,-100.00,South,191,0.0,5.0,99,0.00,,,0.26,6.000000,,2013-01-28 17:11:00,
2013-01-28 09:33:00,32.0,32.0,-100.00,SSW,199,1.0,7.0,99,0.00,,,0.25,25.000000,,2013-01-28 17:33:00,
2013-01-28 09:42:00,32.0,32.0,-100.00,SSW,199,1.0,7.0,99,0.00,,,0.25,25.000000,,2013-01-28 17:42:00,
2013-01-28 09:52:00,32.0,32.0,-100.00,SSW,199,1.0,7.0,99,0.00,,,0.25,25.000000,,2013-01-28 17:52:00,
2013-01-28 10:02:00,32.0,32.0,-100.00,SSW,199,1.0,7.0,99,0.00,,,0.25,25.000000,,2013-01-28 18:02:00,
2013-01-28 10:12:00,32.0,32.0,-100.00,SSW,199,1.0,7.0,99,0.00,,,0.25,25.000000,,2013-01-28 18:12:00,
2013-01-28 10:33:00,32.0,32.0,-100.00,SSW,193,1.0,6.0,99,0.00,,,0.25,26.000000,,2013-01-28 18:33:00,
2013-01-28 10:42:00,32.0,32.0,-100.00,SSW,193,1.0,6.0,99,0.00,,,0.25,26.000000,,2013-01-28 18:42:00,
2013-01-28 10:52:00,32.0,32.0,-100.00,SSW,193,1.0,6.0,99,0.00,,,0.25,26.000000,,2013-01-28 18:52:00,
2013-01-28 11:02:00,32.0,32.0,-100.00,SSW,193,1.0,6.0,99,0.00,,,0.25,26.000000,,2013-01-28 19:02:00,
2013-01-28 11:12:00,32.0,32.0,-100.00,SSW,193,1.0,6.0,99,0.00,,,0.25,26.000000,,2013-01-28 19:12:00,
2013-01-28 12:33:00,34.0,34.0,-100.00,SSW,192,5.0,10.0,99,-99.99,,,0.29,36.000000,,2013-01-28 20:33:00,
2013-01-28 12:43:00,34.0,34.0,-100.00,SSW,192,5.0,10.0,99,-99.99,,,0.29,36.000000,,2013-01-28 20:43:00,
2013-01-28 12:52:00,34.0,34.0,-100.00,SSW,192,5.0,10.0,99,-99.99,,,0.29,36.000000,,2013-01-28 20:52:00,
2013-01-28 13:02:00,34.0,34.0,-100.00,SSW,192,5.0,10.0,99,-99.99,,,0.29,36.000000,,2013-01-28 21:02:00,
2013-01-28 13:11:00,34.0,34.0,-100.00,SSW,192,5.0,10.0,99,-99.99,,,0.29,36.000000,,2013-01-28 21:11:00,
2013-01-28 13:33:00,34.0,34.0,-100.00,SSW,192,5.0,10.0,99,0.07,,,0.34,55.000000,,2013-01-28 21:33:00,
2013-01-28 13:43:00,34.0,34.0,-100.00,SSW,192,5.0,10.0,99,0.07,,,0.34,55.000000,,2013-01-28 21:43:00,
2013-01-28 13:53:00,34.0,34.0,-100.00,SSW,192,5.0,10.0,99,0.07,,,0.34,55.000000,,2013-01-28 21:53:00,
2013-01-28 14:01:00,34.0,34.0,-100.00,SSW,192,5.0,10.0,99,0.07,,,0.34,55.000000,,2013-01-28 22:01:00,
2013-01-28 14:11:00,34.0,34.0,-100.00,SSW,192,5.0,10.0,99,0.07,,,0.34,55.000000,,2013-01-28 22:11:00,
2013-01-28 14:33:00,36.0,36.0,-100.00,South,186,4.0,9.0,99,0.09,,,-99.99,57.000000,,2013-01-28 22:33:00,
2013-01-28 14:42:00,36.0,36.0,-100.00,South,186,4.0,9.0,99,0.09,,,-99.99,57.000000,,2013-01-28 22:42:00,
2013-01-28 14:52:00,36.0,36.0,-100.00,South,186,4.0,9.0,99,0.09,,,-99.99,57.000000,,2013-01-28 22:52:00,
2013-01-28 15:01:00,36.0,36.0,-100.00,South,186,4.0,9.0,99,0.09,,,-99.99,57.000000,,2013-01-28 23:01:00,
2013-01-28 15:11:00,36.0,36.0,-100.00,South,186,4.0,9.0,99,0.09,,,-99.99,57.000000,,2013-01-28 23:11:00,
2013-01-28 15:33:00,36.0,36.0,-100.00,South,178,4.0,9.0,99,0.04,,,0.41,44.000000,,2013-01-28 23:33:00,
2013-01-28 15:42:00,36.0,36.0,-100.00,South,178,4.0,9.0,99,0.04,,,0.41,44.000000,,2013-01-28 23:42:00,
2013-01-28 15:53:00,36.0,36.0,-100.00,South,178,4.0,9.0,99,0.04,,,0.41,44.000000,,2013-01-28 23:53:00,
2013-01-28 16:02:00,36.0,36.0,-100.00,South,178,4.0,9.0,99,0.04,,,0.41,44.000000,,2013-01-29 00:02:00,
2013-01-28 16:11:00,36.0,36.0,-100.00,South,178,4.0,9.0,99,0.04,,,0.41,44.000000,,2013-01-29 00:11:00,
2013-01-28 16:33:00,37.0,37.0,-100.00,WNW,292,3.0,11.0,99,0.06,,,0.42,31.000000,,2013-01-29 00:33:00,
2013-01-28 16:42:00,37.0,37.0,-100.00,WNW,292,3.0,11.0,99,0.06,,,0.42,31.000000,,2013-01-29 00:42:00,
2013-01-28 16:52:00,37.0,37.0,-100.00,WNW,292,3.0,11.0,99,0.06,,,0.42,31.000000,,2013-01-29 00:52:00,
2013-01-28 17:02:00,37.0,37.0,-100.00,WNW,292,3.0,11.0,99,0.06,,,0.42,31.000000,,2013-01-29 01:02:00,
2013-01-28 17:11:00,37.0,37.0,-100.00,WNW,292,3.0,11.0,99,0.06,,,0.42,31.000000,,2013-01-29 01:11:00,
2013-01-28 17:32:00,37.0,37.0,-100.00,NNE,14,2.0,13.0,99,0.05,,,0.44,9.000000,,2013-01-29 01:32:00,
2013-01-28 17:42:00,37.0,37.0,-100.00,NNE,14,2.0,13.0,99,0.05,,,0.44,9.000000,,2013-01-29 01:42:00,
2013-01-28 17:52:00,37.0,37.0,-100.00,NNE,14,2.0,13.0,99,0.05,,,0.44,9.000000,,2013-01-29 01:52:00,
2013-01-28 18:01:00,37.0,37.0,-100.00,NNE,14,2.0,13.0,99,0.05,,,0.44,9.000000,,2013-01-29 02:01:00,
2013-01-28 18:11:00,37.0,37.0,-100.00,NNE,14,2.0,13.0,99,0.05,,,0.44,9.000000,,2013-01-29 02:11:00,
2013-01-28 18:42:00,37.0,37.0,-100.00,South,188,3.0,9.0,99,0.05,,,0.44,4.000000,,2013-01-29 02:42:00,
2013-01-28 18:53:00,37.0,37.0,-100.00,South,188,3.0,9.0,99,0.05,,,0.44,4.000000,,2013-01-29 02:53:00,
2013-01-28 19:02:00,37.0,37.0,-100.00,South,188,3.0,9.0,99,0.05,,,0.44,4.000000,,2013-01-29 03:02:00,
2013-01-28 19:11:00,37.0,37.0,-100.00,South,188,3.0,9.0,99,0.05,,,0.44,4.000000,,2013-01-29 03:11:00,
2013-01-28 19:32:00,36.0,36.0,-100.00,SSW,195,5.0,15.0,99,0.06,,,0.49,4.000000,,2013-01-29 03:32:00,
2013-01-28 19:42:00,36.0,36.0,-100.00,SSW,195,5.0,15.0,99,0.06,,,0.49,4.000000,,2013-01-29 03:42:00,
2013-01-28 19:53:00,36.0,36.0,-100.00,SSW,195,5.0,15.0,99,0.06,,,0.49,4.000000,,2013-01-29 03:53:00,
2013-01-28 20:01:00,36.0,36.0,-100.00,SSW,195,5.0,15.0,99,0.06,,,0.49,4.000000,,2013-01-29 04:01:00,
2013-01-28 20:11:00,36.0,36.0,-100.00,SSW,195,5.0,15.0,99,0.06,,,0.49,4.000000,,2013-01-29 04:11:00,
2013-01-28 20:32:00,36.0,36.0,-100.00,SSW,205,6.0,17.0,99,0.08,,,0.57,4.000000,,2013-01-29 04:32:00,
2013-01-28 20:42:00,36.0,36.0,-100.00,SSW,205,6.0,17.0,99,0.08,,,0.57,4.000000,,2013-01-29 04:42:00,
2013-01-28 20:52:00,36.0,36.0,-100.00,SSW,205,6.0,17.0,99,0.08,,,0.57,4.000000,,2013-01-29 04:52:00,
2013-01-28 21:03:00,36.0,36.0,-100.00,SSW,205,6.0,17.0,99,0.08,,,0.57,4.000000,,2013-01-29 05:03:00,
2013-01-28 21:12:00,36.0,36.0,-100.00,SSW,205,6.0,17.0,99,0.08,,,0.57,4.000000,,2013-01-29 05:12:00,
2013-01-28 21:32:00,36.0,36.0,-100.00,SSW,203,4.0,14.0,99,0.14,,,0.71,4.000000,,2013-01-29 05:32:00,
2013-01-28 21:42:00,36.0,36.0,-100.00,SSW,203,4.0,14.0,99,0.14,,,0.71,4.000000,,2013-01-29 05:42:00,
2013-01-28 21:52:00,36.0,36.0,-100.00,SSW,203,4.0,14.0,99,0.14,,,0.71,4.000000,,2013-01-29 05:52:00,
2013-01-28 22:01:00,36.0,36.0,-100.00,SSW,203,4.0,14.0,99,0.14,,,0.71,4.000000,,2013-01-29 06:01:00,
2013-01-28 22:11:00,36.0,36.0,-100.00,SSW,203,4.0,14.0,99,0.14,,,0.71,4.000000,,2013-01-29 06:11:00,
2013-01-28 22:32:00,38.0,38.0,-100.00,SSW,212,5.0,17.0,99,0.08,,,0.79,4.000000,,2013-01-29 06:32:00,
2013-01-28 22:42:00,38.0,38.0,-100.00,SSW,212,5.0,17.0,99,0.08,,,0.79,4.000000,,2013-01-29 06:42:00,
2013-01-28 22:52:00,38.0,38.0,-100.00,SSW,212,5.0,17.0,99,0.08,,,0.79,4.000000,,2013-01-29 06:52:00,
2013-01-28 23:01:00,38.0,38.0,-100.00,SSW,212,5.0,17.0,99,0.08,,,0.79,4.000000,,2013-01-29 07:01:00,
2013-01-28 23:11:00,38.0,38.0,-100.00,SSW,212,5.0,17.0,99,0.08,,,0.79,4.000000,,2013-01-29 07:11:00,
2013-01-28 23:32:00,38.0,38.0,-100.00,SW,225,2.0,14.0,99,0.06,,,0.85,4.000000,,2013-01-29 07:32:00,
2013-01-28 23:42:00,38.0,38.0,-100.00,SW,225,2.0,14.0,99,0.06,,,0.85,4.000000,,2013-01-29 07:42:00,
2013-01-28 23:52:00,38.0,38.0,-100.00,SW,225,2.0,14.0,99,0.06,,,0.85,4.000000,,2013-01-29 07:52:00,